Weather History for Bolton Field, OH

Change the Weather History Date:

Wednesday, September 4, 2013

  Actual Average Record
Temperature  
Mean Temperature 64 °F -  
Max Temperature 80 °F 79 °F 89 °F (1999)
Min Temperature 48 °F 58 °F 42 °F (1997)
Degree Days  
Heating Degree Days 1    
Growing Degree Days 14 (Base 50)    
Moisture  
Dew Point 55 °F    
Average Humidity 86    
Maximum Humidity 100    
Minimum Humidity 45    
Precipitation  
Precipitation 0.00 in - - ()
Sea Level Pressure  
Sea Level Pressure 30.12 in    
Wind  
Wind Speed 2 mph (WSW)    
Max Wind Speed 9 mph    
Max Gust Speed -    
Visibility 8 miles    
Events      
Averages and records for this station are not official NWS values.
T = Trace of Precipitation, MM = Missing Value Source: NWS Daily Summary

Daily Weather History Graph

Daily Weather History Graph

Search for Another Location

Airport:

Trip Planner

Search our weather history database for the weather conditions in past years. The results will help you decide how hot, cold, wet, or windy it might be!

Date:

Astronomy

Sep. 04, 2013 Rise Set
Actual Time 7:03 AM EDT 7:58 PM EDT
Civil Twilight 6:35 AM EDT 8:26 PM EDT
Nautical Twilight 6:03 AM EDT 8:58 PM EDT
Astronomical Twilight 5:29 AM EDT 9:32 PM EDT
Moon 6:14 AM EDT (9/4) 7:17 PM EDT (9/4)
Length of Visible Light 13h 50m
Length of Day
12h 55m
Waning Crescent, 1% of the Moon is Illuminated
Sep 4
Waning Crescent
Sep 5
New
Sep 12
First Quarter
Sep 19
Full
Sep 26
Last Quarter

Hourly Weather History & Observations

Time (EDT) Temp. Heat Index Dew Point Humidity Pressure Visibility Wind Dir Wind Speed Gust Speed Precip Events Conditions
12:15 AM 52.0 °F - 51.8 °F 99% 30.09 in 10.0 mi SSW 3.5 mph - N/A   Clear
12:35 AM 51.3 °F - 51.3 °F 100% 30.09 in 10.0 mi Calm Calm - N/A   Clear
12:55 AM 52.0 °F - 52.0 °F 100% 30.09 in 7.0 mi Calm Calm - N/A   Clear
1:15 AM 52.0 °F - 52.0 °F 100% 30.08 in 7.0 mi SSW 3.5 mph - N/A   Clear
1:35 AM 51.8 °F - 51.8 °F 100% 30.09 in 7.0 mi Calm Calm - N/A   Clear
1:55 AM 50.9 °F - 50.9 °F 100% 30.09 in 7.0 mi Calm Calm - N/A   Clear
2:15 AM 50.5 °F - 50.5 °F 100% 30.09 in 5.0 mi Calm Calm - N/A   Clear
2:35 AM 50.2 °F - 50.2 °F 100% 30.09 in 7.0 mi Calm Calm - N/A   Clear
2:55 AM 50.2 °F - 50.2 °F 100% 30.09 in 5.0 mi West 3.5 mph - N/A   Clear
3:15 AM 50.4 °F - 50.4 °F 100% 30.10 in 5.0 mi Calm Calm - N/A   Clear
3:35 AM 50.0 °F - 50.0 °F 100% 30.10 in 5.0 mi Calm Calm - N/A   Clear
3:55 AM 49.5 °F - 49.5 °F 100% 30.10 in 4.0 mi Calm Calm - N/A   Clear
4:15 AM 50.4 °F - 50.4 °F 100% 30.11 in 3.0 mi Calm Calm - N/A   Clear
4:35 AM 49.3 °F - 49.3 °F 100% 30.11 in 2.5 mi Calm Calm - N/A   Clear
4:55 AM 49.3 °F - 49.3 °F 100% 30.11 in 4.0 mi WSW 3.5 mph - N/A   Clear
5:15 AM 49.1 °F - 49.1 °F 100% 30.12 in 3.0 mi Calm Calm - N/A   Clear
5:35 AM 49.8 °F - 49.8 °F 100% 30.12 in 5.0 mi WSW 3.5 mph - N/A   Clear
5:55 AM 51.8 °F - 51.8 °F 100% 30.12 in 5.0 mi WSW 3.5 mph - N/A   Clear
6:15 AM 49.8 °F - 49.8 °F 100% 30.13 in 4.0 mi Calm Calm - N/A   Clear
6:35 AM 49.1 °F - 49.1 °F 100% 30.13 in 3.0 mi Calm Calm - N/A   Clear
6:55 AM 48.7 °F - 48.7 °F 100% 30.13 in 3.0 mi Calm Calm - N/A   Clear
7:15 AM 48.0 °F - 48.0 °F 100% 30.14 in 2.0 mi Calm Calm - N/A   Clear
7:20 AM 48.2 °F - 48.2 °F 100% 30.14 in 3.0 mi Calm Calm - N/A   Clear
8:55 AM 57.2 °F - 55.4 °F 94% 30.15 in 7.0 mi Calm Calm - N/A   Clear
9:50 AM 64.4 °F - 57.2 °F 77% 30.16 in 10.0 mi West 3.5 mph - N/A   Clear
10:55 AM 69.8 °F - 59.0 °F 68% 30.16 in 10.0 mi SW 4.6 mph - N/A   Clear
11:50 AM 71.6 °F - 57.2 °F 60% 30.16 in 10.0 mi SW 3.5 mph - N/A   Clear
12:50 PM 73.4 °F - 59.0 °F 61% 30.15 in 10.0 mi West 3.5 mph - N/A   Clear
1:50 PM 77.0 °F - 59.0 °F 54% 30.13 in 10.0 mi West 3.5 mph - N/A   Clear
2:50 PM 78.8 °F - 60.8 °F 54% 30.11 in 10.0 mi WSW 9.2 mph - N/A   Clear
3:55 PM 80.6 °F 81.5 °F 60.8 °F 51% 30.15 in 10.0 mi SSW 3.5 mph - N/A   Clear
4:47 PM 80.6 °F 80.8 °F 57.2 °F 45% 30.11 in 10.0 mi WSW 9.2 mph - N/A   Clear
5:47 PM 78.8 °F - 57.2 °F 47% 30.10 in 10.0 mi WSW 6.9 mph - N/A   Clear
6:47 PM 77.0 °F - 60.8 °F 57% 30.10 in 10.0 mi WSW 4.6 mph - N/A   Clear
7:35 PM 72.3 °F - 60.8 °F 67% 30.09 in 10.0 mi SSW 5.8 mph - N/A   Clear
7:55 PM 70.0 °F - 60.8 °F 73% 30.09 in 10.0 mi SSW 4.6 mph - N/A   Clear
8:15 PM 67.3 °F - 60.8 °F 80% 30.09 in 10.0 mi SSW 4.6 mph - N/A   Clear
8:35 PM 65.5 °F - 60.8 °F 85% 30.10 in 10.0 mi Calm Calm - N/A   Clear
8:55 PM 64.9 °F - 61.0 °F 87% 30.11 in 10.0 mi WSW 3.5 mph - N/A   Clear
9:15 PM 63.5 °F - 60.1 °F 89% 30.12 in 10.0 mi WSW 3.5 mph - N/A   Clear
9:35 PM 63.7 °F - 59.9 °F 87% 30.12 in 10.0 mi SW 5.8 mph - N/A   Clear
9:55 PM 63.3 °F - 59.5 °F 87% 30.11 in 10.0 mi SW 4.6 mph - N/A   Clear
10:15 PM 63.5 °F - 59.4 °F 86% 30.12 in 10.0 mi Calm Calm - N/A   Clear
10:35 PM 62.8 °F - 59.0 °F 87% 30.13 in 10.0 mi SW 3.5 mph - N/A   Clear
10:55 PM 63.9 °F - 59.2 °F 85% 30.13 in 10.0 mi WSW 3.5 mph - N/A   Clear
11:15 PM 63.5 °F - 59.0 °F 85% 30.13 in 10.0 mi West 3.5 mph - N/A   Clear
11:35 PM 63.5 °F - 58.6 °F 84% 30.13 in 10.0 mi WSW 4.6 mph - N/A   Clear
11:55 PM 61.3 °F - 58.1 °F 89% 30.13 in 10.0 mi WSW 4.6 mph - N/A   Clear